カタログに戻る

SL-12 DEB

運用中HEO
NORAD 43527·DEBRIS·🇷🇺 Russia

打ち上げ Mar 1, 2010 から Baikonur Cosmodrome

Loading…

次のパス (今後24時間)

TLE

最新Source: Space-Track

元期: Sep 13, 2026, 23:20 UTC

1 43527U 10007Z   26256.97222724 -.00000233  00000-0 -41741-2 0  9994
2 43527  65.0295 155.0333 5537315 291.5421  19.7032  4.26530308127758

AllMySatでSL-12 DEBをリアルタイム追跡

Download on the App Store